Ypsilanti Chamber of Commerce 5K Run

back to results

Sep. 5, 2009

Ypsilanti Chamber of Commerce 5K Run
EMU-Ypsilanti, MI
Provided by Everal Race Management
  Place    Name                    City               Bib No Age     Age Group       Time      Pace              
1 Joshua Karanja Ypsilanti MI 330 ***** M 0-99 17:16.7 5:34/M
2 Erin Webster Dearborn MI 324 23 ***** F 0-99 17:26.2 5:37/M
3 Phil Mac Bradi Ann Arbor MI 322 50 1 M 0-99 19:33.5 6:18/M
4 Steven Williams Allen Park MI 229 2 M 0-99 20:07.4 6:29/M
5 Scott Rice Ann Arbor MI 314 31 3 M 0-99 20:27.8 6:36/M
6 Michael Brower Ypsilanti MI 222 4 M 0-99 20:45.3 6:42/M
7 Paul Steigerwald Ypsilanti MI 221 5 M 0-99 21:03.1 6:47/M
8 Bradley Kreger Ypsilanti MI 247 6 M 0-99 21:22.3 6:54/M
9 Larry O'Sullivan Ypsilanti MI 219 7 M 0-99 21:58.0 7:05/M
10 Sabrina Williams Allen Park MI 271 1 F 0-99 22:16.4 7:11/M
11 Karla Chavez Ann Arbor MI 291 2 F 0-99 22:41.9 7:19/M
12 James Jankowski Ypsilanti MI 250 8 M 0-99 22:47.8 7:21/M
13 David Jones Livonia MI 256 9 M 0-99 23:23.0 7:33/M
14 Johnathan Slade Westland MI 220 10 M 0-99 23:34.7 7:36/M
15 Chris Brower Ypsilanti MI 258 11 M 0-99 23:48.5 7:41/M
16 Fred Estabrook Ypsilanti MI 249 12 M 0-99 23:49.8 7:41/M
17 Peter Rinehart Ypsilanti MI 246 13 M 0-99 23:55.6 7:43/M
18 Andy Lawson Ypsilanti MI 218 14 M 0-99 23:57.5 7:44/M
19 John Cooper Clinton MI 226 15 M 0-99 23:59.7 7:44/M
20 Andrew Zuerner North Baltimore OH 310 31 16 M 0-99 25:03.2 8:05/M
21 Julia Collins Ypsilanti MI 298 3 F 0-99 25:17.8 8:09/M
22 Amy Gottfried Ann Arbor MI 289 4 F 0-99 25:23.3 8:11/M
23 Nathan Shepherd Ypsilanti MI 251 17 M 0-99 25:33.5 8:15/M
24 Denise Dashner Temperance MI 260 5 F 0-99 25:47.4 8:19/M
25 Cam Freeman Whiteohuse OH 259 18 M 0-99 26:00.1 8:23/M
26 Randy Fielder Adrian MI 253 19 M 0-99 26:10.2 8:26/M
27 Greg Hohenberger Ypsilanti MI 317 33 20 M 0-99 26:52.8 8:40/M
28 Lorenda Faist Pleasant Lake MI 234 6 F 0-99 27:16.3 8:48/M
29 Jay Peters Rochester Hills MI 225 21 M 0-99 27:32.8 8:53/M
30 Lisa Zawadzki Saline MI 273 7 F 0-99 27:58.8 9:01/M
31 Sandy Reeber Ypsilanti MI 269 8 F 0-99 28:08.0 9:05/M
32 Ron Smith Ypsilanti MI 252 22 M 0-99 28:19.2 9:08/M
33 David Szydlowski Dexter MI 306 39 23 M 0-99 28:22.1 9:09/M
34 Sharon Fielder Adrian MI 242 9 F 0-99 28:24.8 9:10/M
35 Domingo Valadez Temperance MI 281 24 M 0-99 28:27.7 9:11/M
36 Ashley Pace Ypsilanti MI 265 10 F 0-99 28:48.3 9:17/M
37 Howard Brauckmuller Ypsilanti MI 224 25 M 0-99 29:06.8 9:23/M
38 Amy Sielaff Milan MI 232 11 F 0-99 29:14.6 9:26/M
39 Sue Stickel Ypsilanti MI 217 12 F 0-99 29:33.5 9:32/M
40 Annie Robbins Ypsilanti MI 213 13 F 0-99 29:42.3 9:35/M
41 Melanie Moore Ypsilanti MI 272 14 F 0-99 30:16.4 9:46/M
42 Wendy Paton-Beaupre Howell MI 308 57 15 F 0-99 30:17.5 9:46/M
43 Tim Kolling Dearborn Hgts MI 285 26 M 0-99 30:37.1 9:53/M
44 Jack Harrington Ypsilanti MI 282 27 M 0-99 30:45.2 9:55/M
45 Sammie Lukaskiewicz Jackson MI 241 38 16 F 0-99 31:01.8 10:00/M
46 Shannon Chino Belleville MI 240 17 F 0-99 31:09.4 10:03/M
47 Emily Dunn Milan MI 211 18 F 0-99 31:27.2 10:09/M
48 Barbara Scupholm Livonia MI 261 19 F 0-99 31:27.2 10:09/M
49 John Redente Ypsilanti MI 255 28 M 0-99 31:29.5 10:09/M
50 Amanda Huyck Ann Arbor MI 300 20 F 0-99 32:02.4 10:20/M
51 Thomas Moore Ypsilanti MI 230 29 M 0-99 32:08.0 10:22/M
52 Dennis Ticknor Manchester MI 223 30 M 0-99 32:28.2 10:28/M
53 Kelli Palsrok Vicksburg MI 294 21 F 0-99 32:46.3 10:34/M
54 Beth Conley Ferndale MI 290 22 F 0-99 33:33.7 10:49/M
55 Stacie Larabell Canton MI 304 23 F 0-99 33:44.7 10:53/M
56 Justin Cormior Fort Knox KY 321 30 31 M 0-99 34:27.2 11:07/M
57 Jesse Byars South Lyon MI 283 32 M 0-99 34:27.8 11:07/M
58 Daniel Jones Ypsilanti MI 254 33 M 0-99 35:27.4 11:26/M
59 Kathy Shaw Ann Arbor MI 295 24 F 0-99 36:25.5 11:45/M
60 Kristin Hughlett Ypsilanti MI 238 25 F 0-99 36:28.0 11:46/M
61 Olivia Kitz Livonia MI 268 26 F 0-99 36:32.4 11:47/M
62 Selene Whalen Belleville MI 236 27 F 0-99 36:33.1 11:47/M
63 Jacqueline McGowan New Boston MI 235 28 F 0-99 37:01.8 11:56/M
64 Jonathan Gardner Ypsilanti MI 227 34 M 0-99 37:05.5 11:58/M
65 Dennis Morris Clinton MI 280 35 M 0-99 37:50.2 12:12/M
66 Alayna Couch Ann Arbor MI 313 28 29 F 0-99 37:55.2 12:14/M
67 Alexandra Knorp Livonia MI 267 30 F 0-99 38:08.4 12:18/M
68 Debbie Smith Ypsilanti MI 303 31 F 0-99 38:16.0 12:21/M
69 Roberta Niedson Ypsilanti MI 305 32 F 0-99 38:39.3 12:28/M
70 Jimmy Knorp Livonia MI 274 36 M 0-99 38:42.0 12:29/M
71 Meghan Knorp Livonia MI 275 37 M 0-99 38:46.5 12:30/M
72 Chris Knorp Livonia MI 214 33 F 0-99 38:46.8 12:30/M
73 Beth Scupholm Livonia MI 257 34 F 0-99 38:47.7 12:31/M
74 Dan Martin Westland MI 287 38 M 0-99 38:57.4 12:34/M
75 Becky Martin Westland MI 233 35 F 0-99 38:57.6 12:34/M
76 Mike Musil Ypsilanti MI 316 36 39 M 0-99 39:12.1 12:39/M
77 Sarah Musil Ypsilanti MI 315 36 F 0-99 39:12.6 12:39/M
78 Amy Leman Ferndale MI 231 37 F 0-99 39:48.9 12:50/M
79 Dyonna Wilson Tecumseh MI 212 38 F 0-99 40:03.6 12:55/M
80 Lorri Baird Ypsilanti MI 239 39 F 0-99 40:32.3 13:05/M
81 Jacey Wasenko Dundee MI 312 30 40 F 0-99 40:42.2 13:08/M
82 Michael Lerman Ferndale MI 248 33 40 M 0-99 41:00.7 13:14/M
83 Laura Bates Lansing MI 311 30 41 F 0-99 41:00.9 13:14/M
84 Gloria Gaynor Ypsilanti MI 302 42 F 0-99 41:40.9 13:26/M
85 Julie Plummer Ypsilanti MI 262 43 F 0-99 41:53.7 13:31/M
86 Sean Reilly Ypsilanti MI 277 41 M 0-99 42:00.5 13:33/M
87 Barney Knorp Livonia MI 323 42 M 0-99 42:03.0 13:34/M
88 Martha Delair Plymouth MI 215 44 F 0-99 42:05.2 13:35/M
89 Emily Brumbaugh Ypsilanti MI 237 45 F 0-99 42:07.9 13:35/M
90 Joyce Dashner Temperance MI 279 46 F 0-99 47:38.7 15:22/M
91 Bob Reilly Ypsilanti MI 286 43 M 0-99 53:05.0 17:07/M
92 Marianne Shepherd Ypsilanti MI 263 47 F 0-99 55:05.8 17:46/M
93 Janae Smith Ypsilanti MI 264 48 F 0-99 55:06.0 17:46/M
94 Brad Smith Canton MI 325 37 44 M 0-99 58:32.4 18:53/M
95 Terri Szydlowski Dexter MI 307 39 49 F 0-99 58:32.8 18:53/M
96 Lila Smith Canton MI 270 50 F 0-99 58:33.4 18:53/M
97 Hunter Smith Canton MI 276 45 M 0-99 58:37.8 18:55/M
98 Shelly Smith Canton MI 243 51 F 0-99 58:38.8 18:55/M
99 Mark Visnaw Troy MI 288 46 M 0-99 1:03:50.4 20:35/M
100 Bonnie Pawlowski Troy MI 209 52 F 0-99 1:03:52.6 20:36/M